Notices

What's New in latest Release from April 7th, 2021:

- Updated Glossary, including Speed of Maximum Gust, and Total Hourly Precipitation

- Updated national and regional climate services offices contacts and prices information

- Addition of station inventory lists for 1981-2010, 1971-2000, and 1961-1990 Normals.

If you haven't already, please take our survey and provide feedback about our website: https://eccc.sondage-survey.ca/f/LanguageSelection.aspx?s=442ca660-fcf1-47c0-95a9-59707d6fd709

Hourly Data Report for March 28, 2021

MIRAMICHI RCS
NEW BRUNSWICK
Current Station Operator: ECCC - MSC

47°00'34.000" N
65°27'54.000" W
33.00 m
8100989
71744
ACQ

Download Data

Hourly Data (March 2021)
Hourly Data Report for March 28, 2021
TIME
LST
Temp Definition
°C
Dew Point Definition
°C
Rel Hum Definition
%
Precip. Amount Definition
mm

Wind Dir Definition
10's deg

Wind Spd Definition
km/h
Visibility Definition
km
Stn Press Definition
kPa
Hmdx Definition


Wind Chill Definition


Weather Definition


00:00 -4.8 -7.4 82 LegendMM 26 2   102.41   -6 LegendNANA
01:00 -4.7 -6.7 86 LegendMM 8 3   102.38   -6 LegendNANA
02:00 -4.6 -6.5 87 LegendMM 28 2   102.40   -5 LegendNANA
03:00 -4.8 -6.8 86 LegendMM 27 4   102.45   -7 LegendNANA
04:00 -5.0 -6.9 86 LegendMM 5 6   102.36   -8 LegendNANA
05:00 -5.8 -6.9 91 LegendMM 10 6   102.34   -9 LegendNANA
06:00 -5.4 -7.1 88 LegendMM 24 5   102.34   -8 LegendNANA
07:00 -5.0 -6.7 88 LegendMM 21 2   102.38   -6 LegendNANA
08:00 -4.1 -6.8 82 LegendMM 15 4   102.34   -6 LegendNANA
09:00 -3.1 -7.2 73 LegendMM 15 11   102.39   -7 LegendNANA
10:00 -2.4 -7.9 66 LegendMM 16 14   102.35   -7 LegendNANA
11:00 -1.8 -7.4 66 LegendMM 14 14   102.19   -6 LegendNANA
12:00 -0.8 -6.2 67 LegendMM 14 11   102.07   -5 LegendNANA
13:00 0.2 -5.8 64 LegendMM 14 14   101.94     LegendNANA
14:00 0.5 -5.3 65 LegendMM 15 18   101.85     LegendNANA
15:00 0.7 -4.5 69 LegendMM 14 15   101.74     LegendNANA
16:00 0.6 -3.9 72 LegendMM 13 16   101.51     LegendNANA
17:00 -0.1 -3.2 79 LegendMM 11 17   101.36   -5 LegendNANA
18:00 -0.1 -2.8 82 LegendMM 12 12   101.24   -4 LegendNANA
19:00 -0.4 -2.4 87 LegendMM 11 14   101.07   -5 LegendNANA
20:00 -1.1 -1.8 95 LegendMM 10 17   100.80   -6 LegendNANA
21:00 -0.7 -1.6 94 LegendMM 12 19   100.43   -6 LegendNANA
22:00 -0.3 -1.2 94 LegendMM 11 20   100.15   -6 LegendNANA
23:00 0.4 -0.6 93 LegendMM 10 23   99.85     LegendNANA

Notes on Data Quality.

Legend

  • E = Estimated
  • M = Missing
  • NA = Not Available*
  • [empty] = Indicates an unobserved value
Date modified: